Location: Unspecified
(0.0000°N, 0.0000°E)
Time: 14:11:15
(UTC+00:00)

Envisat - Pass Details

Date: 19 September 2019
Orbit: 764 x 766 km, 98.1° (Epoch: 18 September)

Event Time Altitude Azimuth Distance (km) Brightness Sun altitude
Rises 18:07:39 0° 154° (SSE) 3,229 6.0 -3.5°
Reaches altitude 10° 18:10:06 10° 147° (SSE) 2,301 5.2 -4.1°
Maximum altitude 18:14:49 40° 78° (ENE) 1,117 3.4 -5.3°
Drops below altitude 10° 18:19:31 10° 9° (N) 2,291 5.4 -6.4°
Sets 18:21:56 0° 2° (N) 3,213 6.2 -7.0°
